Location: Bijele Vode
(45.2833°N, 16.2000°E)
Time: 15:53:55
(UTC+00:00)

Cosmos 1674 - Pass Details

Date: 18 September 2020
Orbit: 495 x 517 km, 82.5° (Epoch: 20 October)

Event Time Altitude Azimuth Distance (km) Brightness Sun altitude
Rises 19:03:50 0° 351° (N) 2,651 6.8 -21.8°
Reaches altitude 10° 19:05:58 10° 351° (N) 1,759 5.8 -22.2°
Enters shadow 19:09:35 77° 353° (N) 537 2.7 -22.7°
